When you browse on this site, cookies collect data to enhance your experience and personalize the content and advertising you see.
Visit our Privacy Policy to learn more. By continuing to use the site, you agree to this use of cookies and data.
  • En España
  • Lista de países
  • Para 7 días
  • Temperatura del agua
  • Mapa Satelital
  • El tiempo en el mapa
  • Informadores
  • user-avatar
    Iniciar sesión

    Tiempo cada hora Graz

    Hoy, 22 Febrero, Viernes

    Tiempo Temperatura Precipitaciones Viento Presión Humedad
    00:00 +8°C° 0 mm 1 mps 730 mmHg 80%
    01:00 +8°C° 0 mm 1 mps 730 mmHg 80%
    02:00 +8°C° 0 mm 1 mps 730 mmHg 81%
    03:00 +7°C° 0 mm 1 mps 729 mmHg 82%
    04:00 +7°C° 0 mm 1 mps 729 mmHg 83%
    05:00 +7°C° 0.1 mm 1 mps 729 mmHg 82%
    06:00 +6°C° 0.1 mm 2 mps 728 mmHg 82%
    07:00 +6°C° 0.1 mm 2 mps 728 mmHg 82%
    08:00 +7°C° 0.2 mm 2 mps 729 mmHg 76%
    09:00 +8°C° 0.2 mm 3 mps 729 mmHg 71%
    10:00 +10°C° 0.2 mm 3 mps 729 mmHg 65%
    11:00 +10°C° 0.1 mm 4 mps 730 mmHg 63%
    12:00 +10°C° 0.1 mm 4 mps 730 mmHg 60%
    13:00 +11°C° 0.1 mm 4 mps 730 mmHg 57%
    14:00 +10°C° 0 mm 5 mps 731 mmHg 57%
    15:00 +9°C° 0 mm 5 mps 731 mmHg 57%
    16:00 +9°C° 0 mm 5 mps 732 mmHg 58%
    17:00 +7°C° 0 mm 4 mps 733 mmHg 63%
    18:00 +5°C° 0 mm 3 mps 734 mmHg 69%
    19:00 +5°C° 0 mm 2 mps 734 mmHg 75%
    20:00 +4°C° 0 mm 2 mps 735 mmHg 75%
    21:00 +3°C° 0 mm 2 mps 736 mmHg 76%
    22:00 +3°C° 0 mm 1 mps 737 mmHg 77%
    23:00 +3°C° 0 mm 1 mps 737 mmHg 76%

    Mañana, 23 Febrero, Sábado

    Tiempo Temperatura Precipitaciones Viento Presión Humedad
    00:00 +2°C° 0 mm 1 mps 738 mmHg 75%
    01:00 +1°C° 0 mm 1 mps 738 mmHg 74%
    02:00 +1°C° 0 mm 1 mps 738 mmHg 71%
    03:00 0°C° 0 mm 1 mps 738 mmHg 69%
    04:00 0°C° 0 mm 1 mps 738 mmHg 67%
    05:00 -1°C° 0 mm 1 mps 738 mmHg 63%
    06:00 -1°C° 0 mm 1 mps 739 mmHg 59%
    07:00 -1°C° 0 mm 1 mps 739 mmHg 55%
    08:00 0°C° 0 mm 1 mps 739 mmHg 47%
    09:00 +1°C° 0 mm 1 mps 739 mmHg 38%
    10:00 +1°C° 0 mm 2 mps 739 mmHg 29%
    11:00 +2°C° 0 mm 2 mps 739 mmHg 26%
    12:00 +3°C° 0 mm 2 mps 739 mmHg 23%
    13:00 +4°C° 0 mm 2 mps 739 mmHg 21%
    14:00 +4°C° 0 mm 2 mps 738 mmHg 23%
    15:00 +4°C° 0 mm 2 mps 738 mmHg 25%
    16:00 +4°C° 0 mm 2 mps 738 mmHg 27%
    17:00 +3°C° 0 mm 1 mps 738 mmHg 33%
    18:00 +2°C° 0 mm 1 mps 738 mmHg 39%
    19:00 0°C° 0 mm 1 mps 739 mmHg 45%
    20:00 0°C° 0 mm 1 mps 739 mmHg 46%
    21:00 -1°C° 0 mm 0 mps 739 mmHg 47%
    22:00 -2°C° 0 mm 0 mps 739 mmHg 48%
    23:00 -2°C° 0 mm 0 mps 739 mmHg 47%

    Pasado mañana, 24 Febrero, Domingo

    Tiempo Temperatura Precipitaciones Viento Presión Humedad
    00:00 -2°C° 0 mm 0 mps 739 mmHg 47%
    01:00 -2°C° 0 mm 0 mps 739 mmHg 47%
    02:00 -2°C° 0 mm 0 mps 739 mmHg 46%
    03:00 -2°C° 0 mm 0 mps 739 mmHg 45%
    04:00 -2°C° 0 mm 0 mps 738 mmHg 44%
    05:00 -2°C° 0 mm 0 mps 738 mmHg 43%
    06:00 -2°C° 0 mm 0 mps 739 mmHg 42%
    07:00 -2°C° 0 mm 0 mps 739 mmHg 42%
    08:00 -1°C° 0 mm 0 mps 739 mmHg 36%
    09:00 +1°C° 0 mm 0 mps 739 mmHg 30%
    10:00 +3°C° 0 mm 0 mps 739 mmHg 25%
    11:00 +5°C° 0 mm 1 mps 739 mmHg 24%
    12:00 +7°C° 0 mm 1 mps 739 mmHg 23%
    13:00 +8°C° 0 mm 1 mps 739 mmHg 22%
    14:00 +7°C° 0 mm 1 mps 738 mmHg 25%
    15:00 +7°C° 0 mm 1 mps 738 mmHg 27%
    16:00 +7°C° 0 mm 1 mps 738 mmHg 30%
    17:00 +5°C° 0 mm 1 mps 738 mmHg 35%
    18:00 +2°C° 0 mm 0 mps 739 mmHg 41%
    19:00 +1°C° 0 mm 0 mps 739 mmHg 46%
    20:00 +1°C° 0 mm 0 mps 739 mmHg 47%
    21:00 +1°C° 0 mm 0 mps 739 mmHg 48%
    22:00 +2°C° 0 mm 1 mps 739 mmHg 49%
    23:00 +2°C° 0 mm 1 mps 739 mmHg 50%

    25 Febrero, Lunes

    Tiempo Temperatura Precipitaciones Viento Presión Humedad
    00:00 +2°C° 0 mm 1 mps 739 mmHg 52%
    01:00 +2°C° 0 mm 1 mps 739 mmHg 54%
    02:00 +2°C° 0 mm 1 mps 739 mmHg 56%
    03:00 +2°C° 0 mm 1 mps 739 mmHg 57%
    04:00 +2°C° 0 mm 1 mps 739 mmHg 59%
    05:00 +2°C° 0 mm 1 mps 739 mmHg 61%
    06:00 +2°C° 0 mm 1 mps 739 mmHg 63%
    07:00 +2°C° 0 mm 1 mps 739 mmHg 65%
    08:00 +5°C° 0 mm 1 mps 739 mmHg 59%
    09:00 +7°C° 0 mm 1 mps 739 mmHg 54%
    10:00 +8°C° 0 mm 0 mps 739 mmHg 49%
    11:00 +11°C° 0 mm 1 mps 739 mmHg 48%
    12:00 +12°C° 0 mm 1 mps 738 mmHg 48%
    13:00 +14°C° 0 mm 1 mps 738 mmHg 48%
    14:00 +13°C° 0 mm 1 mps 738 mmHg 50%
    15:00 +13°C° 0 mm 1 mps 737 mmHg 53%
    16:00 +13°C° 0 mm 1 mps 737 mmHg 55%
    17:00 +11°C° 0 mm 1 mps 737 mmHg 62%
    18:00 +9°C° 0 mm 1 mps 737 mmHg 70%
    19:00 +7°C° 0 mm 1 mps 737 mmHg 77%
    20:00 +7°C° 0 mm 1 mps 737 mmHg 77%
    21:00 +5°C° 0 mm 2 mps 737 mmHg 77%
    22:00 +5°C° 0 mm 2 mps 737 mmHg 78%
    23:00 +4°C° 0 mm 2 mps 737 mmHg 76%

    26 Febrero, Martes

    Tiempo Temperatura Precipitaciones Viento Presión Humedad
    00:00 +4°C° 0 mm 2 mps 737 mmHg 74%
    01:00 +4°C° 0 mm 2 mps 736 mmHg 72%
    02:00 +4°C° 0 mm 2 mps 736 mmHg 72%
    03:00 +4°C° 0 mm 2 mps 736 mmHg 71%
    04:00 +4°C° 0 mm 2 mps 735 mmHg 71%
    05:00 +4°C° 0 mm 2 mps 735 mmHg 70%
    06:00 +3°C° 0 mm 2 mps 735 mmHg 70%
    07:00 +3°C° 0 mm 2 mps 735 mmHg 70%
    08:00 +6°C° 0 mm 2 mps 735 mmHg 63%
    09:00 +8°C° 0 mm 2 mps 735 mmHg 56%
    10:00 +12°C° 0 mm 1 mps 735 mmHg 49%
    11:00 +13°C° 0 mm 2 mps 735 mmHg 45%
    12:00 +15°C° 0 mm 2 mps 734 mmHg 42%
    13:00 +16°C° 0 mm 2 mps 734 mmHg 39%
    14:00 +16°C° 0 mm 2 mps 734 mmHg 41%
    15:00 +15°C° 0 mm 2 mps 733 mmHg 44%
    16:00 +15°C° 0 mm 2 mps 733 mmHg 46%
    17:00 +13°C° 0 mm 2 mps 733 mmHg 54%
    18:00 +10°C° 0 mm 2 mps 733 mmHg 62%
    19:00 +8°C° 0 mm 2 mps 733 mmHg 70%
    20:00 +8°C° 0 mm 2 mps 733 mmHg 70%
    21:00 +8°C° 0 mm 2 mps 733 mmHg 69%
    22:00 +7°C° 0 mm 2 mps 733 mmHg 68%
    23:00 +7°C° 0 mm 2 mps 733 mmHg 68%

    27 Febrero, Miércoles

    Tiempo Temperatura Precipitaciones Viento Presión Humedad
    00:00 +7°C° 0 mm 2 mps 733 mmHg 67%
    01:00 +7°C° 0 mm 2 mps 733 mmHg 67%
    02:00 +6°C° 0 mm 2 mps 733 mmHg 68%
    03:00 +6°C° 0 mm 2 mps 732 mmHg 70%
    04:00 +6°C° 0 mm 2 mps 732 mmHg 71%
    05:00 +5°C° 0 mm 2 mps 732 mmHg 73%
    06:00 +5°C° 0 mm 2 mps 732 mmHg 75%
    07:00 +5°C° 0 mm 2 mps 732 mmHg 76%
    08:00 +8°C° 0 mm 1 mps 732 mmHg 70%
    09:00 +11°C° 0 mm 1 mps 732 mmHg 65%
    10:00 +13°C° 0 mm 1 mps 732 mmHg 59%
    11:00 +14°C° 0 mm 1 mps 732 mmHg 55%
    12:00 +16°C° 0 mm 1 mps 732 mmHg 51%
    13:00 +18°C° 0 mm 1 mps 732 mmHg 47%
    14:00 +18°C° 0 mm 1 mps 731 mmHg 46%
    15:00 +16°C° 0 mm 1 mps 731 mmHg 46%
    16:00 +16°C° 0 mm 1 mps 730 mmHg 46%
    17:00 +14°C° 0 mm 1 mps 730 mmHg 53%
    18:00 +11°C° 0 mm 0 mps 730 mmHg 60%
    19:00 +9°C° 0 mm 0 mps 730 mmHg 67%
    20:00 +10°C° 0 mm 1 mps 730 mmHg 69%
    21:00 +9°C° 0 mm 1 mps 729 mmHg 72%
    22:00 +9°C° 0 mm 1 mps 729 mmHg 75%
    23:00 +8°C° 0 mm 1 mps 729 mmHg 76%
    Mostrar más